Location: Middlebury
(44.0153°N, 73.1678°W)
Time: 12:56:47
(UTC-04:00)

QB50P2 - Pass Details

Date: 21 June 2024
Orbit: 561 x 578 km, 98.0° (Epoch: 21 July)

Event Time Altitude Azimuth Distance (km) Brightness Sun altitude
Rises 04:17:21 0° 4° (N) 2,770 ? -8.1°
Reaches altitude 10° 04:19:38 10° 356° (N) 1,866 ? -7.8°
Maximum altitude 04:23:18 35° 290° (WNW) 926 ? -7.4°
Drops below altitude 10° 04:26:56 10° 225° (SW) 1,849 ? -6.9°
Enters shadow 04:27:14 - 223° (SW) 1,965 ? -6.8°
